Location: Poughquag
(41.6090°N, 73.6820°W)
Time: 12:51:19
(UTC-04:00)

A-11 Canister half - Pass Details

Date: 04 June 2020
Orbit: 1527 x 1682 km, 47.3° (Epoch: 06 July)

Event Time Altitude Azimuth Distance (km) Brightness Sun altitude
Rises 11:11:11 0° 290° (WNW) 4,690 11.3 61.4°
Reaches altitude 10° 11:14:14 10° 292° (WNW) 3,717 10.9 61.8°
Maximum altitude 11:23:39 73° 17° (NNE) 1,629 10.2 63.3°
Drops below altitude 10° 11:33:21 10° 102° (ESE) 3,820 11.6 64.6°
Sets 11:36:31 0° 105° (ESE) 4,826 11.9 65.1°
